Theta_e
349 349 350 352 348 348 348 348 350 350 348 348 348 347 345 345 344 344 347 346 345 343 340 350 348 349 348 346 346 347 346 338 340 338 340 345 345 343 342 339 340 342 342
349 349 349 350 351 349 351 351 351 348 349 349 347 347 346 346 345 345 345 347 346 344 341 341 350 350 350 348 344 343 346 346 340 343 336 332 341 344 338 339 339 341 343
349 350 347 347 348 351 350 348 350 350 350 349 349 348 347 346 344 346 345 347 348 347 345 340 341 348 348 348 345 347 345 344 342 337 343 342 336 334 335 336 336 335 336
348 347 348 348 348 348 349 349 349 348 349 349 349 348 347 347 345 347 346 345 348 349 347 346 341 341 342 348 347 339 347 344 346 340 342 341 342 343 341 339 339 339 337
352 349 349 352 350 348 349 350 349 349 349 347 347 349 348 348 347 345 347 346 345 347 349 349 347 345 342 348 348 343 341 343 345 343 342 342 342 339 338 339 341 339 335
350 349 351 349 349 349 349 347 347 346 347 349 349 348 347 348 347 346 345 344 348 347 346 348 350 348 346 344 349 346 342 343 341 340 341 342 341 338 337 342 342 339 334
349 352 351 349 348 348 346 345 346 347 346 347 346 346 348 348 347 349 348 346 344 345 346 346 349 348 347 346 344 346 344 344 344 342 342 342 342 341 342 343 342 339 336
348 345 346 346 342 344 344 341 341 344 345 345 344 343 347 345 346 346 348 346 345 346 345 344 346 350 349 349 349 345 342 339 340 342 344 342 342 342 343 343 343 343 342
341 342 344 345 343 342 342 343 342 342 344 344 344 343 346 346 343 341 347 347 347 345 345 346 345 345 346 348 349 349 347 344 342 342 342 344 343 343 343 344 344 343 343
338 339 341 342 343 342 341 342 343 342 342 343 342 343 343 343 346 346 342 345 345 347 348 346 346 347 346 346 346 350 350 348 347 345 341 340 341 343 342 342 341 340 339
338 340 340 342 340 341 341 340 341 340 340 341 342 343 343 342 342 345 345 344 343 345 346 340 340 344 348 346 347 346 349 352 350 348 344 340 338 339 340 341 342 341 340
334 337 340 339 338 338 338 337 338 338 339 339 339 339 340 341 341 340 341 343 344 344 344 344 343 340 342 347 348 349 348 348 348 350 349 346 344 340 338 339 341 343 341
334 337 338 337 337 337 337 337 337 336 337 336 336 336 336 337 339 339 340 340 341 341 342 343 343 343 337 336 343 348 347 349 348 347 346 346 346 345 341 341 339 339 338
336 334 337 336 336 336 335 336 333 335 336 333 333 333 335 335 335 334 337 338 338 337 339 342 342 341 343 342 339 340 345 345 345 347 348 347 345 344 344 343 339 339 340
337 336 336 335 335 334 334 333 334 333 334 334 333 333 331 333 333 332 333 334 336 337 337 337 341 341 340 339 340 340 340 340 346 344 344 345 347 347 345 344 341 338 340
336 337 336 336 335 335 335 335 334 334 334 332 334 332 332 332 330 332 330 331 331 333 335 334 338 341 341 341 343 344 339 343 343 344 344 343 343 343 344 345 344 340 339
336 337 336 336 335 335 335 334 333 334 333 334 333 332 331 329 328 328 327 326 326 326 332 334 336 339 341 340 339 340 344 347 346 347 344 344 344 344 344 343 342 342 341
334 334 334 334 334 335 335 333 334 334 334 333 333 331 331 329 327 325 324 323 323 324 325 334 335 338 340 341 338 338 342 342 342 345 347 346 346 346 345 345 343 342 342
334 335 335 334 334 334 334 334 334 333 334 334 333 330 330 328 326 325 323 321 322 322 323 325 333 337 339 340 340 342 343 340 339 336 349 347 346 346 346 346 344 342 342
335 335 334 334 333 334 333 334 333 333 332 333 331 330 329 328 326 323 322 321 319 320 322 322 326 331 338 339 340 340 343 343 343 342 348 347 347 347 347 345 343 342 341
336 335 333 333 334 334 333 332 332 330 331 330 331 330 329 328 327 326 324 323 320 319 321 322 324 326 330 338 340 339 341 343 345 345 345 345 347 347 348 347 344 343 343
335 333 333 334 332 333 331 330 328 328 328 327 328 329 328 327 327 326 324 324 323 319 320 321 323 323 325 331 338 340 340 343 345 342 343 346 348 346 347 346 341 340 342
333 333 333 334 333 332 332 330 327 326 326 328 328 329 328 327 325 324 324 325 323 320 320 321 323 324 325 327 333 339 340 339 341 344 344 347 346 348 349 347 344 340 338
334 333 333 333 331 331 330 329 327 327 327 328 329 328 327 326 325 326 323 323 322 320 321 322 323 323 324 326 329 337 339 338 342 344 344 345 345 347 347 349 346 347 346
333 334 333 332 331 329 329 330 327 327 329 327 328 328 328 325 324 324 322 321 320 321 322 321 321 321 322 323 326 332 337 338 341 342 344 343 346 346 347 347 348 345 345
333 325 332 333 332 331 329 326 325 320 322 326 326 327 326 325 324 322 321 321 321 321 320 321 321 324 325 323 323 325 333 339 337 342 343 343 345 346 345 344 345 345 345
Wind_Speed
6 6 8 6 10 11 10 8 6 10 13 11 13 9 9 10 12 10 8 11 11 9 14 16 17 18 17 17 17 18 16 14 13 13 13 12 12 10 10 10 9 9 8
5 8 8 7 10 9 11 9 6 12 13 13 15 14 14 10 12 13 11 15 12 10 16 17 18 19 19 19 20 19 20 18 16 16 14 14 14 14 13 12 11 11 10
9 12 13 15 14 10 13 14 13 13 13 16 17 19 16 14 14 16 16 14 17 15 13 18 19 21 21 21 22 23 22 21 19 18 17 15 14 14 13 12 12 12 11
14 13 17 17 13 16 16 15 16 16 16 17 18 19 21 16 19 22 19 20 17 20 18 19 20 21 23 24 23 25 25 23 23 20 20 19 18 16 15 14 14 13 13
7 11 15 14 16 17 16 16 18 17 19 20 19 21 21 22 21 20 22 24 25 22 18 21 25 22 23 24 26 25 27 28 26 24 23 23 21 20 18 17 17 16 16
14 13 15 15 14 15 18 19 19 20 19 18 18 21 27 22 23 24 25 23 25 27 25 22 24 25 23 25 27 28 27 27 27 26 25 24 22 21 20 20 19 19 18
8 8 8 9 10 14 15 15 16 14 17 16 17 18 21 23 24 25 26 21 28 27 27 26 24 27 26 27 30 30 30 30 29 28 27 26 25 23 22 22 21 21 19
5 8 9 11 14 16 16 15 17 14 14 17 11 15 4 11 19 27 29 29 28 23 26 29 29 24 25 27 30 31 33 31 32 30 30 28 28 26 25 23 23 22 21
7 9 8 10 13 15 14 14 12 13 12 14 15 9 3 4 9 15 14 21 29 31 29 26 31 34 32 28 24 30 32 33 34 33 33 31 30 29 27 26 24 23 22
9 11 10 10 10 12 14 14 10 12 13 12 16 11 17 17 3 6 15 16 15 19 28 25 25 30 36 33 33 27 29 33 34 34 35 34 33 31 30 28 26 25 23
8 6 7 6 9 11 14 16 13 13 13 13 13 13 13 16 16 9 8 13 20 17 24 23 30 34 28 36 37 37 33 29 32 33 35 35 35 33 32 30 29 27 26
8 5 3 6 8 10 12 16 15 15 14 14 14 14 13 9 10 11 7 15 17 23 18 24 33 34 39 30 38 35 35 37 35 33 34 35 35 36 35 33 32 30 29
5 5 6 6 8 11 12 13 14 15 14 12 13 14 15 15 17 18 17 17 12 25 22 23 30 30 31 47 25 25 35 36 38 38 39 37 35 35 36 35 35 33 31
7 9 7 6 10 11 12 11 15 13 12 11 11 12 14 16 17 18 17 17 12 17 22 27 25 26 23 30 27 35 26 28 37 36 37 38 38 37 38 37 36 36 34
5 5 6 9 13 15 14 13 14 16 9 9 11 12 16 17 17 21 21 22 18 13 14 26 23 24 25 22 32 30 31 34 34 38 36 37 39 39 38 38 39 39 37
8 9 10 11 13 16 16 15 16 16 14 12 12 15 12 14 19 18 22 23 23 25 16 29 28 27 28 25 22 24 34 36 40 39 37 35 36 37 39 41 40 39 39
9 11 12 13 16 18 18 15 15 16 15 11 12 12 10 12 16 17 19 22 24 24 20 33 31 29 29 32 34 29 32 37 32 33 38 36 36 36 36 38 41 43 42
10 11 13 15 17 18 18 16 15 15 15 14 12 12 9 10 14 15 20 23 25 28 31 25 29 29 30 32 36 35 34 37 40 27 32 35 35 37 37 37 37 38 39
12 13 14 15 17 17 18 19 18 16 14 14 14 13 10 11 14 17 19 20 23 28 27 29 28 29 28 28 30 29 35 35 30 32 37 36 34 36 36 36 35 35 35
13 14 15 16 18 19 19 23 19 16 15 15 16 15 15 13 13 15 17 20 23 26 26 26 27 28 26 30 30 25 25 33 31 33 29 29 27 38 33 32 32 31 31
14 14 16 17 17 17 21 6 7 12 14 18 18 17 17 16 20 20 23 25 25 24 25 24 25 25 25 27 24 24 26 30 32 28 28 26 29 32 35 33 32 31 31
13 14 15 16 15 17 20 20 18 18 17 18 21 19 18 19 21 22 28 25 28 27 29 27 27 25 25 26 30 27 24 22 9 35 33 30 29 35 35 35 33 33 33
13 14 15 18 17 19 18 17 16 16 21 20 20 21 24 21 22 27 26 28 29 36 31 36 32 32 30 32 29 31 30 25 27 28 28 25 31 32 31 31 32 34 34
14 17 17 18 20 22 21 19 18 23 22 23 23 25 23 22 24 26 25 27 29 36 34 37 37 40 38 35 35 30 31 32 31 26 29 17 29 33 36 36 31 30 29
15 16 17 21 21 20 17 15 12 15 22 25 23 22 18 21 24 17 22 23 33 37 41 46 46 47 48 44 39 27 29 27 19 22 27 28 23 28 26 30 35 29 33
17 19 20 19 14 12 22 21 15 16 25 30 23 20 19 17 18 21 20 25 25 35 43 50 46 41 33 40 43 44 35 23 23 15 25 25 22 19 9 22 25 30 29
Wind_Direction
252 275 277 297 291 298 327 297 316 304 304 296 291 285 269 278 287 299 249 225 224 226 214 206 209 207 207 208 214 210 211 212 217 218 220 221 225 224 231 233 237 246 251
256 262 283 275 277 287 288 284 291 286 280 283 282 276 262 244 255 271 262 232 220 228 223 214 216 212 211 214 214 217 216 219 219 227 227 225 230 231 236 238 242 247 255
253 264 260 264 268 281 281 297 290 286 275 280 275 275 261 262 257 245 251 251 232 232 229 228 219 217 222 218 217 219 225 222 225 224 227 230 231 233 237 242 245 247 250
245 261 273 281 280 276 274 279 283 282 281 282 277 280 277 266 261 243 236 242 245 235 236 230 224 222 221 219 222 219 221 225 228 226 227 231 235 238 239 244 244 248 253
247 261 268 270 274 272 279 277 284 285 282 280 281 281 267 263 259 253 235 233 234 241 247 241 239 232 228 220 220 224 223 225 228 229 230 233 238 243 244 243 245 249 254
279 277 275 272 272 274 272 276 282 287 282 284 284 283 281 287 277 266 254 246 236 234 240 242 239 231 233 230 227 226 224 224 227 229 230 232 237 241 242 241 248 253 256
283 283 298 297 286 282 287 289 285 297 299 294 296 284 278 282 271 267 267 257 241 237 232 237 247 226 228 233 231 229 227 223 227 230 233 233 234 235 236 241 247 252 255
268 290 291 294 304 311 310 304 291 302 298 301 287 294 293 286 268 258 253 252 253 246 235 231 234 227 227 235 232 229 229 227 226 227 230 233 234 236 238 240 245 251 255
317 312 303 299 297 295 293 303 310 303 297 300 296 266 285 245 344 311 271 255 251 248 240 236 233 232 234 235 238 234 228 229 229 231 230 231 232 234 237 240 244 247 249
310 297 297 296 305 308 296 308 318 301 300 294 302 292 270 266 287 304 295 297 294 257 253 238 250 240 232 231 235 237 236 232 232 231 231 232 233 234 236 239 240 242 245
273 268 278 298 303 307 305 317 314 306 297 293 292 297 301 297 277 254 282 286 291 285 271 265 278 275 246 231 232 235 234 239 234 233 231 231 234 235 235 237 240 241 244
301 294 304 324 314 310 313 316 316 312 308 304 305 304 300 294 298 297 291 286 286 285 277 268 249 254 265 268 223 228 231 234 237 235 235 233 235 237 238 239 239 240 245
357 353 353 337 313 310 313 311 311 310 315 321 319 319 321 311 305 299 294 289 283 288 284 266 260 258 264 273 279 233 229 233 235 237 238 236 236 237 238 241 241 242 245
314 315 325 308 314 307 302 311 319 317 319 332 340 341 339 332 320 308 288 292 299 291 284 271 262 261 248 252 261 280 242 257 234 234 236 241 241 242 241 241 240 242 245
313 355 330 312 307 306 303 298 300 313 320 335 338 338 333 329 330 326 317 301 281 293 287 281 270 270 261 261 253 263 248 266 248 237 236 238 239 241 242 243 242 243 244
293 294 295 295 305 307 302 299 296 290 300 312 321 328 334 340 335 332 328 318 316 300 285 279 273 263 259 250 246 249 246 254 246 235 235 237 241 243 244 243 243 243 244
282 284 286 288 291 296 294 294 293 288 286 299 313 321 324 339 336 335 332 328 313 318 289 279 273 267 258 257 254 246 244 244 246 238 232 235 241 245 245 244 244 245 247
279 281 280 284 290 293 292 296 292 293 296 298 297 306 311 323 326 328 326 322 325 320 329 276 275 267 258 257 261 258 245 248 251 249 249 239 239 243 244 244 244 245 246
272 275 284 290 293 293 292 286 273 285 283 281 285 295 293 305 303 309 314 323 322 322 335 316 298 270 260 257 260 259 244 245 241 255 230 240 239 241 242 243 243 244 245
274 284 293 292 292 287 283 279 277 271 278 275 282 284 281 277 281 304 312 319 325 324 325 324 305 300 265 257 251 251 243 241 222 224 241 253 244 239 237 238 239 241 239
275 283 288 288 290 292 291 304 287 284 281 280 277 276 277 272 275 294 304 305 316 317 313 312 299 296 287 259 244 240 233 230 236 235 237 251 241 229 234 236 236 235 234
274 287 295 293 294 295 298 309 310 303 292 283 282 276 276 280 290 290 301 293 308 310 303 302 291 284 277 278 258 241 232 221 220 230 229 233 232 229 231 231 231 232 232
279 283 292 293 293 289 291 291 297 298 296 286 286 284 284 288 300 296 296 295 303 313 301 288 281 277 272 264 262 248 240 230 227 223 225 228 224 226 225 226 235 232 234
259 273 278 281 288 287 288 297 300 299 291 293 285 286 288 293 299 299 309 302 308 311 309 303 288 276 269 265 253 252 245 233 237 228 215 225 227 227 228 225 230 231 230
254 259 270 278 281 287 296 311 317 309 303 294 295 292 290 303 309 306 313 311 319 319 323 317 306 286 269 257 248 248 248 235 232 221 219 225 230 230 227 221 233 220 218
247 278 276 281 291 307 298 314 306 291 290 295 295 291 303 315 318 327 330 331 322 325 320 322 320 317 265 247 235 234 227 226 223 231 223 216 222 230 249 244 230 213 210